Погода в Мапусе

Индия     15°36′01″N   73°48′56″E
темп.,
°C
ветер,
м/с
пор.,
м/с
влажн.,
%
обл.,
%
осадки,
мм/ч
давл.,
гПа
погр.,
м
6 мая, чт
чт623:30+30ссз457117 0.0 1008356
02:30+29с457333 0.0 1006371
05:30+28св227369 0.0 1007215
08:30+30в1166100 0.0 1009272
11:30+30вюв116498 0.0 1010336
14:30+31зюз546640 0.0 1007418
17:30+31з446944 0.0 1007573
20:30+30сз457682 0.0 1009641
7 мая, пт
пт723:30+30с22725 0.1 1010285
02:30+29ссз457433 0.0 1007439
05:30+29ссв237567 0.0 1008322
08:30+30св117035 0.0 1011420
11:30+30з326893 0.0 1011499
14:30+31з656812 0.0 1008540
17:30+30зсз3472100 0.1 1008793
20:30+28в4478100 6.2 1011211
8 мая, сб
сб823:30+28всв3474100 6.3 1010178
02:30+28ссз4573100 0.0 1007262
05:30+28ссв2374100 0.0 1008259
08:30+28в1171100 0.0 1010155
11:30+30з2269100 0.0 1009391
14:30+30з6572100 0.0 1007429
17:30+30сз5571100 0.1 1007803
20:30+29ссз367590 2.3 1008530
9 мая, вс
вс923:30+28всв337999 2.3 1009215
02:30+27ссв228095 0.0 1007150
05:30+28ссв12799 0.0 1007229
08:30+28всв2276100 0.0 1010299
11:30+30з2270100 0.0 1009534
14:30+30з6570100 0.0 1007561
17:30+30зсз567170 0.0 1006701
20:30+30сз567471 0.1 1008705
10 мая, пн
пн1023:30+29ссз4574100 0.1 1008701
02:30+29ссз4475100 0.0 1006506
05:30+29ссз4477100 0.0 1007585
08:30+29ссз34746 0.0 1009629
11:30+30з65715 0.0 1009658
14:30+31зсз777024 0.0 1007776
17:30+30зсз67716 0.0 1006924
20:30+30сз6672100 0.0 1008933